Regional Weather Roundup
Issued by NWS Charleston, WV

Home | Current Version | Previous Version | Text Only | Print | Product List | Glossary On
Versions: 1 2 3 4 5 6 7 8 9 10 11 12 13 14 15 16 17 18 19 20 21 22 23 24 25 26 27 28 29 30 31 32 33 34 35 36 37 38 39 40 41 42 43 44 45 46 47 48 49 50
000
ASUS41 KRLX 131810
RWRRLX
West Virginia Regional Weather Roundup
National Weather Service Charleston WV
200 PM EDT SUN JUL 13 2014

Note: "fair" indicates few or no clouds below 12,000 feet with no
significant weather and/or obstructions to visibility.

WVZ003-131900-
Northern Panhandle of West Virginia

CITY           SKY/WX    TMP DP  RH WIND       PRES   REMARKS
WHEELING       CLOUDY    82  69  64 SW13G18   29.97S
$$

WVZ009-131900-
Northwest West Virginia

CITY           SKY/WX    TMP DP  RH WIND       PRES   REMARKS
PARKERSBURG    PTSUNNY   87  71  58 SW8       30.00F
$$

WVZ006-131900-
Western West Virginia

CITY           SKY/WX    TMP DP  RH WIND       PRES   REMARKS
HUNTINGTON     MOSUNNY   91  67  44 S10G20    30.00F
$$

WVZ015-131900-
West Central West Virginia

CITY           SKY/WX    TMP DP  RH WIND       PRES   REMARKS
CHARLESTON     PTSUNNY   91  67  44 SW12G22   30.02F
$$

WVZ031-131900-
North Central West Virginia

CITY           SKY/WX    TMP DP  RH WIND       PRES   REMARKS
CLARKSBURG     CLOUDY    85  65  51 S12       30.01F
MORGANTOWN     CLOUDY    87  64  46 SW12G20   30.01F
$$

WVZ035-042-045-131900-
South Central West Virginia

CITY           SKY/WX    TMP DP  RH WIND       PRES   REMARKS
BECKLEY        CLOUDY    81  64  56 SW9       30.15F
BLUEFIELD      PTSUNNY   82  62  50 W7        30.18F
LEWISBURG      PTSUNNY   87  57  35 SW6       30.13S
$$

WVZ047-131900-
Northern Mountains of West Virginia

CITY           SKY/WX    TMP DP  RH WIND       PRES   REMARKS
ELKINS         PTSUNNY   84  62  47 SW6       30.09F
$$

WVZ052-131900-
Eastern Panhandle of West Virginia

CITY           SKY/WX    TMP DP  RH WIND       PRES   REMARKS
MARTINSBURG    CLOUDY    83  68  60 S6        30.01F
PETERSBURG     PTSUNNY   85  60  43 S5        30.02F
$$



USA.gov is the U.S. government's official web portal to all federal, state and local government web resources and services.